Current weather by "City, St" or "zip code"  
 

Current Conditions: Troy, Troy Municipal Airport, AL

Fair


72.0 F

Last Updated on Oct 23 2020, 9:53 pm CDT
Humidity: 87%
Wind Speed: N 0.0 mph
Barometer 30.04 in
Dewpoint: 68.0 F
Visibility: 10.00 mi
Precip: --
Heat Index: NA
Wind Chill: NA
Current conditions at:

Troy, Troy Municipal Airport, AL (KTOI)

Lat: 31.86056 Lon: 86.01222

Local Radar Image active severe weather and emergency alerts image image weather storm and storm spotter reports image weather observation monitoring service image
Local
Radar
Active
Alerts
Storm Reports Obs
Monitoring

Sign-up For Email & Text Message Weather Alert Notification Services



Advertise Here

Observation History for Troy, Troy Municipal Airport, AL


Time Wind
(mph)
Vis
(mi)
Weather Precip (in) Temperature (F) Relative
Humidity
Wind
Chill
(F)
Heat
Index
(F)
Pressure
Air Dwpt altimeter
(in)
sea level
(mb)
Rmks
9:53 pm CDT N 0.0 10.00 Fair -- 72.0 68.0 87% NA NA 30.04 1016.8
8:53 pm CDT N 0.0 10.00 A Few Clouds -- 73.0 69.1 87% NA NA 30.03 1016.5
7:53 pm CDT E 3.5 10.00 Overcast -- 74.0 70.0 88% NA NA 30.02 1016.2
6:53 pm CDT N 0.0 10.00 Fair -- 75.0 70.0 84% NA NA 30.01 1016.0
5:53 pm CDT NE 4.6 10.00 Fair -- 80.0 69.1 69% NA 83 30.00 1015.3
4:53 pm CDT SE 3.5 10.00 A Few Clouds -- 83.0 69.1 63% NA 87 29.99 1015.1
3:53 pm CDT E 5.8 10.00 Partly Cloudy Trace 84.0 70.0 63% NA 88 29.99 1015.2
2:53 pm CDT NE 6.9 10.00 Mostly Cloudy -- 82.0 70.0 67% NA 86 30.01 1015.8
1:53 pm CDT 4.6 10.00 Partly Cloudy -- 84.0 69.1 61% NA 88 30.03 1016.3
12:53 pm CDT E 5.8 10.00 A Few Clouds -- 83.0 69.1 63% NA 87 30.06 1017.3
11:53 am CDT NE 8.1 10.00 Mostly Cloudy -- 83.0 70.0 65% NA 87 30.08 1018.2
10:53 am CDT E 6.9 10.00 Partly Cloudy -- 80.0 69.1 69% NA 83 30.10 1018.7
9:53 am CDT E 8.1 10.00 Partly Cloudy -- 76.0 68.0 77% NA NA 30.10 1018.7
8:53 am CDT E 4.6 10.00 Overcast -- 71.0 68.0 90% NA NA 30.10 1018.7
7:53 am CDT E 4.6 10.00 Overcast -- 69.0 66.0 90% NA NA 30.08 1018.1
6:53 am CDT NE 4.6 10.00 Fair -- 68.0 64.9 90% NA NA 30.07 1017.9
5:53 am CDT E 5.8 10.00 Fair -- 68.0 64.9 90% NA NA 30.07 1017.7
4:53 am CDT E 3.5 10.00 Fair -- 68.0 64.9 90% NA NA 30.07 1017.6
3:53 am CDT NE 3.5 10.00 Fair -- 69.0 66.0 90% NA NA 30.06 1017.4
2:53 am CDT NE 3.5 10.00 Fair -- 70.0 66.0 87% NA NA 30.06 1017.6
1:53 am CDT E 4.6 10.00 Fair -- 70.0 66.0 87% NA NA 30.07 1017.7
12:53 am CDT E 5.8 10.00 Fair -- 71.0 66.0 84% NA NA 30.07 1017.8
11:53 pm CDT E 4.6 10.00 Fair -- 72.0 66.9 84% NA NA 30.08 1018.1
10:53 pm CDT E 4.6 10.00 Fair -- 73.0 68.0 84% NA NA 30.09 1018.3

Regional Weather Observation


Montgomery, Dannelly Field, AL (KMGM)

Fair
71.0 F

Maxwell Air Force Base / Montgomery, AL (KMXF)

Fair
72.0 F

Mac Crenshaw Memorial Airport, AL (KPRN)

Fair
72.0 F

Andalusia, Andalusia-Opp Municipal Airport, AL (K79J)

Fair
73.0 F

Alexander City, Thomas C Russell Field Airport, AL (KALX)

Fair
69.0 F

Fort Rucker, Lowe Army Heliport, AL (KLOR)

Fair
69.0 F